Regional Weather Roundup
Issued by NWS

Home | Current Version | Previous Version | Text Only | Print | Product List | Glossary Off
Versions: 1 2 3 4 5 6 7 8 9 10 11 12 13 14 15 16 17 18 19 20 21 22 23 24 25 26 27 28 29 30 31 32 33 34 35 36 37 38 39 40 41 42 43 44 45 46 47 48 49 50

083
ASUS43 KMKX 290921
RWRWI

WISCONSIN REGIONAL WEATHER ROUNDUP
NATIONAL WEATHER SERVICE MILWAUKEE/SULLIVAN WI
400 AM CDT THU JUN 29 2017

NOTE: "FAIR" INDICATES FEW OR NO CLOUDS BELOW 12,000 FEET WITH NO
SIGNIFICANT WEATHER AND/OR OBSTRUCTIONS TO VISIBILITY.

WIZ001-002-006>008-014>016-023>028-291000-
NORTHWEST WISCONSIN

CITY           SKY/WX    TMP DP  RH WIND       PRES   REMARKS
SUPERIOR ARPT  NOT AVBL
ASHLAND        CLOUDY    55  53  93 W13       29.53R
HAYWARD        CLOUDY    58  57  97 VRB7      29.57R FOG
SIREN          CLOUDY    61  60  94 W6        29.60S
CUMBERLAND     CLOUDY    61  59  94 W10G21    29.60R
RICE LAKE      CLOUDY    63  61  91 W12       29.61R FOG
CHETEK         CLOUDY    64  63  97 W6        29.60R
LADYSMITH      RAIN      64  63  94 W8        29.60R
EAU CLAIRE     CLOUDY    64  61  90 SW8       29.60R
MENOMONIE      CLOUDY    64  61  90 SW6       29.62R
NEW RICHMOND   CLOUDY    64  57  80 W13       29.63R
OSCEOLA        CLOUDY    64  64 100 W9        29.65R
$$

WIZ003>005-009-010-017-018-291000-
NORTH CENTRAL WISCONSIN

CITY           SKY/WX    TMP DP  RH WIND       PRES   REMARKS
MANITOWISH WTR CLOUDY    64  64 100 S6        29.55R
ARBOR VITAE    CLOUDY    64  63  95 SW8       29.56S
WOODRUFF       CLOUDY    64  63  95 SW8       29.56S
RHINELANDER    CLOUDY    64  64 100 SW8       29.59R
EAGLE RIVER    CLOUDY    64  64  99 SW5       29.57S
LAND O LAKES   CLOUDY    65  64  99 S5        29.58R
PHILLIPS       CLOUDY    63  63 100 SW6       29.56S FOG
TOMAHAWK       NOT AVBL
MEDFORD        CLOUDY    63  61  94 W10G16    29.60R
MERRILL        CLOUDY    64  64 100 SW5       29.61R
$$

WIZ029-030-035-036-043>047-291000-
CENTRAL WISCONSIN

CITY           SKY/WX    TMP DP  RH WIND       PRES   REMARKS
WAUSAU         CLOUDY    64  64 100 S8        29.59R
MOSINEE        CLOUDY    63  63 100 S8        29.62S
MARSHFIELD     CLOUDY    65  62  90 W8        29.61R
STEVENS POINT  MOCLDY    62  62 100 S7        29.63R
WAUPACA        CLOUDY    66  65  99 S6        29.63R
WAUTOMA        CLOUDY    65  64  97 S7        29.64S
WISC RAPIDS    CLEAR     64  63  96 SW8       29.64R
CAMP DOUGLAS   CLEAR     65  64  96 S7        29.64R
$$

WIZ011>013-019>022-031-037>040-048>050-291000-
NORTHEAST WISCONSIN

CITY           SKY/WX    TMP DP  RH WIND       PRES   REMARKS
ANTIGO         CLOUDY    64  64  99 SW9       29.62R
SHAWANO        CLOUDY    68  64  88 SW5       29.61R
OCONTO         CLOUDY    67  64  90 SW5       29.60S
STURGEON BAY     N/A     59  59 100 S8        29.62S FOG
GREEN BAY      CLOUDY    68  66  93 SW9       29.62S
MANITOWOC      PTCLDY    63  61  93 S6        29.64F
APPLETON       MOCLDY    64  64 100 S12       29.62R
CLINTONVILLE   CLOUDY    64  63  94 SW7       29.62R
OSHKOSH        MOCLDY    67  63  87 SW10      29.63S
$$

WIZ032>034-041-042-053>061-291000-
SOUTHWEST WISCONSIN

CITY           SKY/WX    TMP DP  RH WIND       PRES   REMARKS
LA CROSSE      CLEAR     69  64  84 S5        29.64S
SPARTA         PTCLDY    60  60 100 CALM      29.65R
VIROQUA        CLEAR     64  64 100 SW10      29.67R
BOSCOBEL       CLOUDY    65  63  93 SW3       29.68R
PRAIRIE DU CHI CLEAR     65  63  92 SW6       29.68S
PLATTEVILLE    CLOUDY    68  68 100 SW13      29.71S
$$

WIZ056-057-062-063-064-067-068-291000-
SOUTH CENTRAL WISCONSIN

CITY           SKY/WX    TMP DP  RH WIND       PRES   REMARKS
REEDSBURG      CLOUDY    66  66 100 SW14      29.66R
BARABOO/DELLS  CLOUDY    66  63  89 SW7       29.67R
LONE ROCK      MOCLDY    67  64  90 CALM      29.67R
MINERAL POINT  CLOUDY    68  68 100 SW9       29.70S
MADISON        CLOUDY    67  65  93 CALM      29.68S
MIDDLETON      CLOUDY    68  68  99 SW3       29.69R
WATERTOWN      CLOUDY    65  65 100 S7        29.68S
MONROE         CLOUDY    68  64  88 SW13      29.72R
JANESVILLE     CLOUDY    64  64 100 CALM      29.70R
$$

WIZ051-052-058>065-066-070>072-291000-
SOUTHEAST WISCONSIN

CITY           SKY/WX    TMP DP  RH WIND       PRES   REMARKS
MILWAUKEE      MOCLDY    66  63  90 S9        29.68S
WAUKESHA       CLOUDY    63  61  94 S6        29.70S
MILWAUKEE/TIMM MOCLDY    64  59  82 S12       29.68S
RACINE         MOCLDY    67  62  84 S14       29.71S
KENOSHA        CLOUDY    67  63  87 S8        29.70F
FOND DU LAC    PTCLDY    67  62  84 SW8       29.65F
SHEBOYGAN      PTCLDY    65  64  97 S8        29.65F
WEST BEND      CLOUDY    64  63  94 SW9       29.67F
JUNEAU         CLOUDY    64  62  94 S9        29.68F
$$

LSZ147-162-291000-
LAKE SUPERIOR

STATION/POSITION TIME  TEMP    WIND        PRES    WAVE
                       AIR SEA DIR/SP/G            HT/PER
                 (UTC) (F)     (DEG/KT/KT) (MB)    (FT/S)
W MID LAKE BUOY  0850   44 39   40/ 17/ 21  999.0S   3/ 4
DEVILS ISLAND    0900   51      80/  4/  4  999.3S
SAXON HARBOR     0840   65     220/  7/ 14  999.0R
$$

LMZ867-665-643>646-291000-
LAKE MICHIGAN

STATION/POSITION TIME  TEMP    WIND        PRES    WAVE
                       AIR SEA DIR/SP/G            HT/PER
                 (UTC) (F)     (DEG/KT/KT) (MB)    (FT/S)
CHAMBERS ISLAND  0840   63     150/  7/ 13 1002.4S
S GREEN BAY BUOY 0900   67     210/ 12/ 14 1002.2
N MID LAKE BUOY  0850   57 53  190/ 17/ 21 1003.8F   6/ 7
NORTHPORT PIER   0840   59     180/  7/ 15 1003.0S
KEWAUNEE LAKESHO 0854   61     190/  7/  9 1002.8F
SHEBOYGAN LAKESH 0900   62     170/ 17/ 18 1003.7F
PORT WASHINGTON  0840   59     170/  4/  9 1005.8R
ATWATER BUOY     0809   55 44  170/ 16/ 19 1004.9F
MILWAUKEE LAKESH 0900   66     210/ 11/ 12   N/A
S MID LAKE BUOY  0850   65 60  180/ 10/ 16 1006.1F   2/ 5
KENOSHA   LAKESH 0900   61     180/ 12/ 16 1006.1
$$

TC  - TEMPERATURE IN CELSIUS
VSB - VISIBILITY IN STATUTE MILES
WCI - WIND CHILL INDEX
HX  - HEAT INDEX





USA.gov is the U.S. government's official web portal to all federal, state and local government web resources and services.